Overview Statistics Trail Chart Weather Telemetry Raw packets
 

This is the latest recevied weather packets stored in our database for station/object KB0BDN-13. If no packets are shown the sender has not sent any weather packets the latest 10 day(s).

<< 4 5 6 7 8 9 10 >>
Time Temp. Humidity Pressure Rain* Wind** Luminosity Snow
1788624093 22.22° C 73% 1013 hPa 0 mm - - -
1788623193 21.11° C 74% 1013.1 hPa 0 mm - - -
1788623052 21.11° C 74% 1013.5 hPa 0 mm - - -
1788622293 21.11° C 74% 1013.5 hPa 0 mm - - -
1788622152 21.11° C 74% 1013.2 hPa 0 mm - - -
1788621393 20.56° C 75% 1013.2 hPa 0 mm - - -
1788620493 20.56° C 78% 1013.1 hPa 0 mm - - -
1788620352 20° C 78% 1013.1 hPa 0 mm - - -
1788619593 19.44° C 79% 1013.1 hPa 0 mm - - -
1788619452 19.44° C 79% 1013.1 hPa 0 mm - - -
1788618693 18.89° C 83% 1013.1 hPa 0 mm - - -
1788618552 18.89° C 84% 1013.3 hPa 0 mm - - -
1788617793 18.33° C 85% 1013.3 hPa 0 mm - - -
1788617651 17.78° C 84% 1013.2 hPa 0 mm - - -
1788616893 17.22° C 87% 1013.2 hPa 0 mm - - -
1788616751 16.67° C 87% 1013.1 hPa 0 mm - - -
1788615998 15.56° C 91% 1013.1 hPa 0 mm - - -
1788615098 14.44° C 96% 1012.9 hPa 0 mm - - -
1788614198 13.89° C 99% 1013.2 hPa 0 mm - - -
1788614078 13.89° C 99% 1012.7 hPa 0 mm - - -
1788613298 13.33° C 99% 1012.7 hPa 0 mm - - -
1788613152 12.78° C 99% 1012.7 hPa 0 mm - - -
1788612398 12.78° C 99% 1012.7 hPa 0 mm - - -
1788612251 12.78° C 99% 1012.5 hPa 0 mm - - -
1788611498 12.22° C 99% 1012.5 hPa 0 mm - - -

* Rain latest hour (hover to see other rain measurements)
** Current wind speed in m/s (hover to see current wind gust speed)